BADR-7 (ARABSAT-6B)

Last updated on Jan. 19, 2020, 4:37 a.m. UTC

1 41029U 15065B   20018.52649510  .00000140  00000-0  00000-0 0  9991
2 41029   0.0451 238.9874 0004697  21.1569  72.7606  1.00272725 15289
UTC
Height (km)
Latitude
Longitude
Inclination
Orbital Period
UTC large
Height (km)
Speed (km/s)
/
Latitude / Longitude
Inclination (degrees)
Orbital Period (minutes)
Azimuth
Elevation
Range (km)
Doppler Factor
iOS Compass Heading
iOS Angle

Next 30 passes for location: Hong Kong

Rise time Rise Azimuth (degrees) Set time Set Azimuth (degrees) Duration Max altitude (degrees)

No matching passes for this satellites